RH
6 6 7 7 6 5 16 23 24 24 26 24 19 20 22 31 54 67 66 67 66 62 53 44 41 40 40 37 35 34 36 37 40 38 34 30 20 34 32 29 60 70 74 50 57 28 8 5 6
5 6 7 7 7 13 19 20 25 26 24 20 17 14 14 30 63 68 72 76 72 65 64 52 53 45 43 42 39 38 36 36 37 39 41 34 26 24 20 26 50 72 80 65 74 27 11 6 5
5 6 7 8 9 15 23 26 26 24 23 21 14 14 18 24 42 60 76 78 65 85 77 64 58 50 48 47 45 42 41 40 38 38 39 38 34 37 37 42 39 41 49 81 85 54 35 10 8
3 6 8 11 20 21 25 24 24 22 19 19 19 25 36 38 31 55 69 64 64 85 79 72 67 59 58 56 51 50 47 45 43 41 40 43 47 49 49 52 60 67 66 83 87 90 83 45 20
3 5 7 13 21 24 26 25 24 23 15 15 26 33 31 45 41 69 80 72 80 75 85 82 80 79 77 67 64 67 62 56 51 48 45 42 43 48 54 57 56 61 67 85 88 90 88 74 32
4 5 7 15 17 22 26 26 24 18 13 16 20 24 21 24 26 31 43 51 50 58 67 75 74 78 78 77 74 76 72 77 70 57 51 49 48 45 49 59 61 62 57 66 87 88 88 68 16
5 4 14 22 22 22 22 21 17 13 13 22 22 21 21 20 20 20 19 19 20 21 23 25 27 29 32 36 42 53 60 66 70 72 61 55 54 52 48 51 62 71 64 30 59 68 38 16 16
6 10 19 25 22 22 22 13 11 14 16 20 19 17 14 12 8 8 7 8 9 11 12 15 16 16 16 16 18 20 31 53 58 67 74 66 59 58 55 53 57 63 63 78 80 65 51 25 17
8 8 19 22 21 19 17 14 12 13 14 12 10 6 9 13 12 11 10 9 8 7 6 6 5 5 5 4 4 6 9 13 19 25 44 65 67 65 61 61 62 69 69 65 78 88 86 84 31
10 8 17 23 21 20 19 14 9 9 9 9 10 10 11 12 11 10 10 10 10 9 10 10 10 10 10 9 8 7 7 5 4 5 9 25 53 67 74 66 64 66 73 78 74 78 87 94 84
12 10 25 25 24 22 17 10 12 12 12 12 11 10 8 7 6 5 6 6 5 5 5 5 5 6 6 8 9 11 11 10 9 6 5 5 13 47 73 79 82 72 68 71 80 80 80 77 85
10 12 19 25 22 13 13 11 9 8 9 9 8 8 7 7 6 6 5 5 4 4 3 3 3 3 3 3 3 4 5 6 8 11 11 8 6 6 14 44 73 85 89 81 75 78 85 88 82
9 11 10 13 12 10 8 7 7 7 8 6 6 6 6 6 6 5 5 5 4 4 5 6 6 6 6 6 6 6 5 4 4 5 6 9 12 10 7 7 17 51 78 99 99 95 93 91 89
8 10 9 9 9 6 6 6 5 6 6 7 6 5 6 6 6 6 6 6 6 8 8 9 9 10 9 9 9 9 10 9 8 6 6 5 5 7 12 11 8 6 12 41 82 91 99 100 98
8 9 8 7 8 7 6 5 5 5 6 6 5 5 6 6 7 6 7 8 8 10 10 12 12 12 12 12 12 12 12 12 12 11 11 9 8 6 6 8 12 12 10 8 14 50 77 97 99
10 9 9 8 7 6 6 7 11 6 6 5 5 5 5 6 8 8 8 9 11 12 13 14 14 15 14 13 13 13 13 13 14 13 14 14 13 12 10 8 8 10 12 12 11 10 13 46 73
12 9 8 9 11 11 7 6 9 11 14 10 6 6 6 7 9 9 8 11 12 14 15 15 15 14 13 13 12 12 14 14 14 15 15 15 14 13 14 16 18 13 10 12 13 14 13 13 14
11 10 9 8 17 14 9 6 8 10 11 12 8 7 10 10 10 10 10 11 13 14 16 16 16 14 12 10 9 9 12 13 14 16 18 20 20 17 15 16 17 21 22 21 15 14 15 16 17
14 15 26 21 20 21 14 9 6 5 5 6 8 7 13 15 12 12 12 13 16 18 19 19 18 14 10 9 8 8 9 12 17 18 26 30 33 29 20 18 20 21 24 24 27 26 17 15 18
18 18 22 24 22 21 15 8 7 5 5 5 6 7 16 17 16 15 15 18 21 22 22 20 15 12 10 10 9 9 10 12 14 17 29 31 22 31 32 23 22 24 26 26 32 33 32 25 21
20 26 22 21 19 15 12 13 9 6 6 8 10 15 19 19 18 20 19 21 23 24 20 15 14 13 12 11 10 11 12 13 15 17 26 37 24 19 39 33 26 27 25 27 39 45 38 35 29
30 34 37 26 24 27 20 23 10 11 15 14 14 15 17 22 24 27 22 27 26 20 18 15 13 11 12 12 12 15 16 17 18 22 33 38 32 21 32 44 40 33 30 69 63 74 61 42 40
33 30 31 32 31 32 24 17 9 11 19 19 21 23 26 29 34 32 28 31 26 20 18 18 18 14 16 18 19 19 20 20 22 29 34 37 41 26 32 40 39 40 40 55 98 76 64 56 47
36 31 36 41 34 37 16 13 9 9 9 18 29 33 34 36 32 29 33 30 25 22 22 20 21 17 20 24 25 23 26 33 34 34 34 40 47 32 28 26 19 18 20 31 82 94 89 62 54
49 48 44 49 57 48 26 20 10 17 17 25 24 25 25 25 32 38 39 34 26 24 22 24 22 18 24 27 26 28 34 34 33 35 41 52 55 30 23 25 24 25 26 30 43 92 82 85 57
57 53 33 42 78 66 51 47 27 18 33 35 36 33 34 38 36 39 38 34 28 26 28 27 21 21 25 26 27 35 37 40 42 49 60 68 56 42 40 37 38 34 33 40 52 85 89 89 76
58 64 53 50 54 57 48 47 42 33 33 35 36 38 41 40 37 41 35 29 29 30 30 23 21 24 27 30 36 38 44 51 57 62 58 58 52 57 54 56 60 48 39 45 51 73 80 89 96
71 61 62 55 70 78 54 48 35 37 39 40 40 42 40 38 36 32 30 33 35 38 27 26 27 32 33 42 45 47 51 56 62 66 56 51 58 74 71 69 65 67 71 52 59 66 86 88 95
55 74 58 53 46 79 80 43 28 30 35 42 43 40 37 32 35 36 39 44 46 36 32 33 35 34 42 50 53 54 52 54 63 69 65 62 67 70 65 69 66 70 72 76 52 68 78 88 91
53 61 60 59 58 69 67 39 38 39 43 45 45 41 38 37 42 48 51 47 41 38 35 36 38 41 52 55 57 55 51 56 71 80 78 76 75 74 71 62 58 48 60 66 57 76 88 95 98
Wind_Speed
8 9 8 8 7 6 4 6 9 14 12 10 11 10 15 13 13 8 13 12 13 12 14 15 14 13 12 11 10 9 9 8 7 7 7 6 7 7 7 6 7 6 6 4 6 3 2 0 2
7 7 10 9 7 7 6 12 15 13 11 12 14 16 18 16 10 12 9 9 11 11 14 16 15 14 13 12 11 10 10 9 9 8 7 6 6 6 7 7 8 8 6 4 3 3 1 1 2
5 7 9 6 9 7 10 11 10 10 10 10 12 12 12 11 14 11 8 6 6 12 14 15 15 15 13 12 11 11 10 10 9 9 9 8 7 8 8 8 9 8 8 6 5 3 4 4 6
5 8 9 8 8 6 11 11 11 10 10 12 13 9 10 9 9 9 8 8 7 9 9 14 15 15 14 12 13 12 11 11 11 11 10 10 9 9 10 9 9 9 7 7 8 6 7 8 10
5 9 12 9 10 6 9 11 10 9 10 12 13 12 7 9 7 8 9 8 9 10 10 12 13 13 14 14 13 13 13 13 13 13 13 12 11 11 12 10 10 10 10 8 8 10 9 10 13
7 10 8 11 11 11 12 11 12 12 13 12 12 12 9 9 9 9 10 9 9 10 10 11 13 13 13 13 13 12 13 12 14 15 15 15 14 13 13 12 10 11 11 12 13 12 12 13 13
8 10 9 8 9 14 13 13 16 13 11 12 12 11 9 11 11 11 11 12 13 14 15 16 16 16 16 16 16 16 15 14 14 15 16 17 16 15 15 14 13 10 12 13 16 16 14 12 12
9 9 9 8 9 10 12 10 13 12 11 12 11 8 9 8 9 10 11 14 15 16 18 20 20 21 20 20 20 20 20 19 18 17 17 18 18 19 18 17 16 14 14 16 16 15 13 12 11
10 10 8 10 11 12 10 10 12 12 10 11 12 9 7 8 6 8 10 11 11 12 13 14 16 17 18 18 18 20 22 23 24 24 22 20 20 21 21 20 19 18 18 17 17 17 17 14 12
10 11 10 12 12 10 11 9 10 12 11 12 11 10 8 7 8 8 7 8 9 11 11 12 14 15 16 17 17 18 19 19 20 23 25 25 24 22 23 24 23 22 22 21 20 20 19 18 16
9 12 10 10 11 10 11 10 11 11 11 11 9 6 7 7 6 4 6 7 7 8 9 9 11 13 15 16 17 18 19 20 19 20 21 22 25 26 25 23 24 25 25 25 24 23 22 21 20
11 9 10 10 11 9 8 8 10 10 10 12 10 8 8 7 6 5 4 4 4 4 4 4 5 6 7 8 10 13 17 19 20 20 21 21 23 25 29 29 26 24 25 27 30 27 25 26 25
10 9 8 8 9 8 9 8 9 9 11 10 9 6 6 5 5 4 4 4 3 3 3 4 4 4 5 5 6 8 10 12 14 16 20 22 24 24 26 27 31 32 29 25 25 26 28 28 28
9 7 8 8 9 8 8 9 8 10 10 9 6 5 7 6 6 6 5 5 5 5 5 4 3 3 3 4 6 7 8 10 12 14 17 18 20 23 26 28 30 32 35 36 31 30 29 31 33
11 12 10 11 10 9 7 10 9 10 10 9 7 5 8 8 7 6 5 5 5 4 4 4 4 5 7 9 9 9 10 12 14 15 17 19 21 20 20 25 31 33 34 34 38 38 34 33 28
9 10 13 12 13 13 11 6 6 11 10 10 7 6 8 8 8 7 6 6 6 6 6 6 8 9 10 12 12 13 14 15 17 18 19 22 24 24 24 23 24 29 33 35 36 38 40 42 41
13 10 10 12 12 11 12 7 10 12 11 12 10 9 8 9 10 9 8 8 8 8 9 9 11 12 14 16 17 19 19 20 20 21 24 26 29 30 28 27 26 26 27 29 31 35 39 39 36
17 15 14 13 9 11 10 10 9 11 14 13 14 12 9 11 12 11 11 11 12 12 12 13 15 17 19 21 22 22 22 23 24 26 28 30 33 33 33 31 32 31 28 27 28 29 32 36 34
14 11 11 11 13 12 13 11 11 16 18 16 15 16 13 13 14 13 14 14 14 15 16 17 20 22 23 26 27 27 27 25 26 29 31 32 35 37 37 35 34 33 32 32 31 30 30 31 29
19 18 16 12 13 14 16 16 15 15 19 20 20 19 16 16 16 17 15 14 16 17 18 21 24 26 29 30 30 32 31 30 28 29 31 33 32 34 39 38 37 36 34 34 34 34 33 31 29
16 20 18 17 15 16 17 20 16 17 17 17 17 15 17 17 17 15 15 16 17 18 21 24 27 30 32 34 34 34 35 34 32 31 31 32 33 31 35 39 39 38 38 36 34 35 36 33 28
16 17 18 16 14 8 11 5 7 10 12 12 14 17 17 17 17 17 17 16 16 18 23 28 32 35 35 36 36 37 38 38 37 36 33 33 33 34 32 36 38 38 38 36 33 33 33 34 29
16 16 14 16 16 17 19 7 9 17 18 19 19 19 20 20 19 19 18 19 21 23 27 31 34 35 35 36 37 38 39 40 41 39 38 34 34 34 34 36 36 37 36 36 34 33 36 34 34
15 14 12 12 11 5 21 15 9 19 22 25 25 24 24 25 23 21 20 21 23 26 31 37 39 36 35 35 37 39 40 40 41 42 41 37 35 33 33 32 33 33 34 37 34 35 35 37 36
15 12 2 2 1 6 7 13 18 12 17 21 23 25 25 22 21 21 21 24 27 32 36 41 41 37 35 36 38 39 40 42 44 44 41 35 32 31 30 33 33 32 33 34 37 36 37 36 41
17 17 7 8 4 3 6 8 9 17 21 20 24 23 22 21 22 24 26 30 32 36 41 45 39 36 36 36 38 39 41 42 40 36 34 32 28 28 29 30 30 31 32 31 34 35 35 35 36
8 19 18 5 1 1 6 6 5 13 19 25 25 24 23 24 26 27 30 32 35 40 45 38 35 35 36 38 38 37 35 33 32 28 27 28 27 25 27 28 29 31 32 32 32 35 36 36 37
17 8 9 11 2 4 5 7 8 24 26 30 28 26 25 26 28 27 30 33 37 44 37 35 34 35 37 37 35 32 32 32 30 28 27 28 27 27 29 31 34 33 34 35 34 36 38 36 36
20 21 12 8 6 5 1 6 14 18 26 29 27 26 24 23 26 27 33 37 42 37 34 34 34 34 36 35 32 32 32 32 31 28 28 29 31 34 35 35 35 36 37 37 36 36 39 37 36
13 21 23 9 5 6 2 2 5 7 21 23 21 20 19 23 28 31 35 41 37 32 32 32 33 34 35 34 32 32 32 29 28 27 28 31 33 33 27 27 27 28 28 30 33 34 37 35 35
Wind_Direction
242 236 226 219 215 224 156 176 199 206 204 213 220 235 238 227 192 194 222 211 203 192 190 189 195 195 192 197 199 198 195 196 204 200 202 202 193 185 180 182 184 186 203 283 304 263 210 247 347
242 225 220 215 230 210 187 199 210 210 221 238 244 244 243 232 210 210 197 180 200 213 192 194 198 206 198 204 205 207 210 209 209 212 211 211 207 198 184 179 179 194 219 280 296 214 232 351 352
240 219 210 213 222 200 197 192 203 221 225 250 254 235 227 227 233 228 209 221 193 189 200 198 200 209 211 210 214 217 220 223 225 224 223 219 215 210 202 194 197 204 223 238 246 254 320 324 340
235 209 209 219 202 206 200 191 194 217 237 222 228 225 225 220 223 217 201 194 176 187 200 201 204 210 214 218 220 221 223 229 233 235 235 230 224 219 219 215 211 215 228 231 229 261 283 310 323
227 211 212 212 208 198 201 211 220 228 232 225 215 223 216 198 194 172 180 186 187 201 204 195 203 211 217 216 219 225 230 232 235 238 240 239 234 230 230 229 228 225 227 225 229 243 261 293 309
228 218 214 203 205 204 208 230 242 242 233 225 218 220 213 196 196 194 193 200 211 217 221 223 223 221 224 224 229 236 237 242 245 240 242 242 241 241 238 239 240 236 229 220 233 240 261 286 295
241 228 209 208 224 221 218 236 250 245 220 210 215 219 218 211 214 219 223 222 228 232 237 243 243 244 241 241 242 243 245 245 246 247 244 245 247 247 247 246 245 246 235 229 232 245 262 278 284
243 230 204 223 227 222 225 237 226 223 211 211 220 236 232 221 223 216 224 233 234 238 240 242 249 253 252 249 248 247 245 245 246 244 245 246 246 249 249 250 248 248 247 246 249 252 260 273 276
246 235 217 208 219 242 232 228 216 216 204 204 214 218 193 201 221 231 228 238 240 240 239 243 245 247 252 254 253 252 253 249 248 250 246 246 249 249 250 250 250 250 251 251 253 255 259 268 274
242 234 227 226 234 253 248 228 215 211 205 209 216 215 207 208 218 221 233 246 249 252 247 247 251 253 253 255 257 255 255 254 252 253 249 245 245 250 252 251 251 251 252 253 254 254 259 264 271
249 242 239 238 242 257 251 222 212 202 198 198 204 192 194 199 214 230 245 245 245 249 252 249 250 255 259 259 258 260 262 263 261 258 257 255 248 245 248 254 257 255 253 255 256 258 260 260 262
263 257 248 261 253 233 224 212 208 202 191 181 183 195 211 217 226 233 228 226 223 220 228 233 239 243 252 259 260 258 261 263 262 262 262 258 257 254 249 248 252 258 259 255 253 254 257 259 260
270 269 259 239 231 218 208 203 206 196 185 189 192 202 213 227 235 217 215 223 221 228 235 240 236 239 250 260 266 269 270 271 272 268 263 259 257 255 256 255 251 251 253 258 258 257 257 256 258
266 266 252 236 219 218 223 221 212 213 199 198 211 235 227 234 220 211 210 213 222 226 227 224 225 229 239 250 258 266 273 277 278 278 278 272 264 258 255 255 254 252 250 250 253 249 262 267 255
254 258 253 245 231 226 235 241 226 220 203 203 233 256 240 240 228 235 231 243 244 240 239 245 256 270 274 274 273 275 276 274 271 272 276 278 277 272 263 254 253 255 254 253 252 252 255 259 254
240 246 253 256 237 236 234 234 221 197 204 215 246 259 248 242 240 246 256 260 257 260 266 280 289 287 281 277 276 278 280 282 279 277 275 275 275 274 274 269 260 256 256 256 255 256 256 253 258
239 244 246 255 240 232 222 232 219 213 223 239 260 262 264 247 246 253 264 267 270 271 274 283 287 288 287 287 286 288 290 288 284 280 277 277 277 273 264 262 264 263 261 260 259 259 261 262 258
241 248 248 248 252 231 238 235 239 244 246 241 259 267 270 242 241 248 260 264 266 268 274 284 291 294 295 292 289 287 287 287 287 284 282 280 276 271 265 258 256 258 259 259 261 258 258 260 259
256 237 243 245 243 251 253 248 248 264 261 250 256 264 267 237 238 248 255 263 273 278 284 289 298 299 296 297 294 291 289 285 286 287 286 281 273 269 266 259 254 255 259 259 259 260 261 258 256
236 243 243 250 240 252 265 271 265 250 261 262 258 252 253 227 233 243 254 268 272 275 286 293 300 300 302 300 297 296 293 291 287 287 286 284 275 268 264 262 260 259 257 260 259 257 257 257 258
244 251 251 253 254 256 268 273 268 265 258 250 244 225 224 231 242 256 267 275 277 289 303 310 310 306 303 301 302 299 296 295 292 290 286 283 277 272 260 258 260 262 262 260 255 251 253 256 256
246 248 254 250 251 253 242 262 237 244 253 235 222 219 232 247 255 266 276 287 295 298 302 305 308 306 302 299 299 298 297 296 294 291 286 280 278 271 261 256 257 258 262 257 252 244 245 251 249
245 254 257 250 249 259 253 249 227 225 231 229 226 229 236 247 256 263 267 271 282 294 303 311 313 308 302 299 298 295 295 294 294 292 287 279 275 269 262 258 256 256 250 250 246 244 235 239 242
240 237 246 253 248 258 250 220 234 228 242 228 222 224 234 243 251 260 269 282 290 299 311 314 313 306 299 298 297 296 294 293 291 289 285 277 267 262 259 254 252 254 255 249 247 242 242 236 236
231 222 175 299 224 227 236 211 235 232 230 231 229 230 236 243 257 267 275 284 287 296 302 308 311 302 299 299 298 296 295 294 292 286 281 274 264 256 253 253 253 253 253 252 248 246 241 243 234
233 221 210 196 189 247 187 235 243 227 210 222 229 231 238 248 262 270 281 291 297 305 310 310 305 299 300 300 299 298 297 294 291 286 278 273 265 261 257 256 257 256 255 250 245 240 241 239 237
233 228 242 280 233 109 213 238 207 209 208 214 223 231 241 255 268 277 288 296 303 309 308 306 303 302 304 304 302 303 301 298 296 289 282 276 271 267 260 261 262 261 258 253 244 237 239 236 238
230 218 224 224 165 231 234 227 205 203 203 207 218 232 248 262 270 288 300 301 310 315 310 307 307 310 309 308 309 306 303 299 297 288 279 271 269 270 266 266 261 254 255 252 243 235 236 238 237
234 224 217 226 237 170 198 249 226 228 215 213 222 237 255 275 291 300 304 309 313 310 308 309 312 312 309 310 308 304 301 296 291 284 278 272 272 272 274 272 264 259 255 245 244 235 234 239 233
247 242 227 222 224 226 213 244 180 217 218 219 231 246 266 278 291 297 306 313 309 307 309 313 314 312 313 315 310 303 300 295 287 286 284 281 277 274 272 275 266 260 249 240 241 233 231 235 229